User: anonymous   Login
Location: Unspecified
(0.0000°N, 0.0000°E)
Time: 11:58:00
(UTC+00:00)
Language:

BEIDOU M1 - Orbit

View from above orbital plane
View from above orbital plane
View from above satellite
View from above satellite

Ground track
Ground track

The orbit data is extracted from the following two-line orbital elements,

1 31115U 07011A   18292.05084986 -.00000027  00000-0  00000+0 0  9991
2 31115  52.8700 311.8112 0003206 266.1938  93.8140  1.77348556 76776
Epoch (UTC): 19 October 2018 01:13:13
Eccentricity: 0.0003206
inclination: 52.8700°
perigee height: 22443 km
apogee height: 22461 km
right ascension of ascending node: 311.8112°
argument of perigee: 266.1938°
revolutions per day: 1.77348556
mean anomaly at epoch: 93.8140°
orbit number at epoch: 7677

The dashed part of the orbit path shows where the satellite is in the earth's shadow,  

DLR